Regional Weather Roundup
Issued by NWS

Home | Current Version | Previous Version | Text Only | Print | Product List | Glossary On
Versions: 1 2 3 4 5 6 7 8 9 10 11 12 13 14 15 16 17 18 19 20 21 22 23 24 25 26 27 28 29 30 31 32 33 34 35 36 37 38 39 40 41 42 43 44 45 46 47 48 49 50
000
ASUS42 KFFC 292103
RWRGA
WEATHER ROUNDUP FOR GEORGIA
NATIONAL WEATHER SERVICE PEACHTREE CITY GA
500 PM EDT SAT APR 29 2017

NOTE: "FAIR" INDICATES FEW OR NO CLOUDS BELOW 12,000 FEET WITH NO
SIGNIFICANT WEATHER AND/OR OBSTRUCTIONS TO VISIBILITY.

* = USE WITH CAUTION. THE STATIONS MARKED WITH AN ASTERISK MAY NOT
REPORT WEATHER SUCH AS PRECIPITATION, FOG, OR THUNDER AND ARE NOT
QUALITY CONTROLLED BY NWS.

THE REMARK "TC" DENOTES TEMPERATURE READING IN DEGREES CELSIUS.

GAZ001>058-292200-
NORTH GEORGIA

CITY           SKY/WX    TMP DP  RH WIND       PRES   REMARKS
ATLANTA        CLOUDY    85  66  53 SE13G21   30.08F
ATHENS         CLOUDY    84  72  67 VRB3      30.10F
CHAMBLEE       PTSUNNY   83  65  54 S12       30.08F
PEACHTREE CITY MOSUNNY   86  67  52 SE9       30.08F
ROME           CLOUDY    89  65  44 S14       30.02F HX  91
WEST ATLANTA   MOSUNNY   88  66  48 S14G22    30.07F HX  90
GAINESVILLE    CLOUDY    83  68  60 E10       30.12F
CARTERSVILLE   MOSUNNY   85  67  54 S13G20    30.05F


CITY           SKY/WX    TMP DP  RH WIND       PRES   REMARKS
DALTON*        MOSUNNY   86  64  48 S7        30.05F
LAWRENCEVILLE* MOSUNNY   84  70  61 SE12      30.11F
MARIETTA       PTSUNNY   85  66  52 SE12      30.07F
KENNESAW*      PTSUNNY   86  66  51 S9G18     30.03F
CANTON*        MOSUNNY   86  55  35 SE8G16    30.09F
$$

GAZ059>098-102>109-292200-
CENTRAL GEORGIA

CITY           SKY/WX    TMP DP  RH WIND       PRES   REMARKS
AUGUSTA-BUSH   MOSUNNY   91  69  48 SE10      30.10F HX  96
AUGUSTA-DANIEL MOSUNNY   89  65  44 VRB6      30.12F HX  91
COLUMBUS       MOSUNNY   88  63  43 S13       30.05F
MACON          MOSUNNY   86  65  49 S12G20    30.08F
ROBINS AFB     MOSUNNY   89  67  48 S14       30.07F HX  91


CITY           SKY/WX    TMP DP  RH WIND       PRES   REMARKS
LAGRANGE*      MOSUNNY   88  71  56 S15       30.06F HX  93
SYLVANIA*      MOSUNNY  N/A N/A N/A SE7       30.14S
MILLEDGEVILLE* MOSUNNY   86  73  66 S3        30.09F HX  93
$$

GAZ099>101-110>166-292200-
SOUTH GEORGIA

CITY           SKY/WX    TMP DP  RH WIND       PRES   REMARKS
SAVANNAH       PTSUNNY   85  66  53 SE15      30.16F
VALDOSTA       CLOUDY    89  65  44 S8        30.07F HX  91
ALMA           MOSUNNY   91  64  40 E8        30.09F HX  92
ST SIMONS      SUNNY     80  70  71 SE15      30.16F
FT STEWART     SUNNY     84  67  54 SE16      30.12F
ALBANY         CLOUDY    89  65  44 S15       30.09F HX  91
HUNTER AFB     SUNNY     81  74  78 SE13      30.14F
MOODY AFB      CLOUDY    92  64  39 SE10      30.06F HX  93
BRUNSWICK      SUNNY     82  72  69 SE14G22   30.16F


CITY           SKY/WX    TMP DP  RH WIND       PRES   REMARKS
BAINBRIDGE*    CLOUDY    88  70  55 S15G22    30.08S HX  92
MOULTRIE*      CLOUDY    88  66  48 S6        30.09F HX  90
VIDALIA*       MOSUNNY   91  63  38 S8        30.11F HX  92
WAYCROSS*      MOSUNNY   92  66  41 S8G17     30.09F HX  95
DOUGLAS*       PTSUNNY   88  63  42 SW5       30.10F
$$



USA.gov is the U.S. government's official web portal to all federal, state and local government web resources and services.